1518674400.09,30402,8.0,72794.8,-14.05,-19.85,-20.19,0,*6A
1518674401.3,30403,8.0,72792.3,-14.03,-19.91,-20.05,0,*65
1518674402.55,30404,8.0,72792.0,-14.05,-19.71,-19.91,0,*6D
1518674403.82,30405,8.0,72794.0,-14.05,-19.57,-19.91,0,*68
1518674405.12,30406,8.0,72792.3,-14.05,-19.57,-19.85,0,*6E
1518674406.33,30407,8.06,72794.5,-14.03,-19.75,-19.91,0,*6C
1518674407.57,30408,8.06,72792.8,-14.03,-19.91,-20.15,0,*6F
1518674408.8,30409,8.0,72790.0,-14.03,-19.85,-20.05,0,*6A
1518674410.04,30410,8.0,72792.3,-14.01,-19.47,-19.71,0,*67
1518674411.28,30411,8.0,72792.0,-14.03,-19.65,-19.75,0,*60
1518674412.53,30412,8.0,72794.3,-14.03,-19.57,-19.71,0,*66
1518674413.77,30413,8.0,72792.5,-14.01,-19.47,-19.71,0,*64
1518674414.98,30414,8.0,72794.0,-14.03,-19.51,-19.75,0,*62
1518674416.26,30415,8.0,72794.0,-14.01,-19.61,-19.95,0,*6C
1518674417.56,30416,8.0,72796.0,-14.01,-19.61,-19.85,0,*6E
1518674418.83,30417,8.0,72792.8,-14.01,-19.61,-19.75,0,*60
1518674420.12,30418,8.0,72792.5,-14.01,-19.65,-19.81,0,*60
1518674421.33,30419,8.0,72792.0,-14.03,-19.75,-19.91,0,*63
1518674422.61,30420,8.0,72792.5,-14.01,-19.65,-19.95,0,*6E
1518674423.87,30421,8.0,72796.0,-14.01,-19.81,-19.95,0,*65
1518674425.13,30422,8.06,72796.0,-14.01,-19.85,-20.09,0,*6D
1518674426.39,30423,8.0,72792.3,-14.01,-19.81,-19.99,0,*6B
1518674427.64,30424,8.0,72792.5,-14.01,-19.71,-19.95,0,*6F
1518674428.89,30425,8.0,72794.8,-14.01,-19.71,-19.95,0,*6E
1518674430.16,30426,8.0,72794.8,-14.01,-19.85,-20.09,0,*69
1518674431.42,30427,8.0,72794.8,-14.01,-19.81,-19.99,0,*6F
1518674432.63,30428,8.0,72794.8,-14.03,-19.75,-20.05,0,*66
1518674433.89,30429,8.0,72794.5,-14.01,-19.81,-19.99,0,*61
1518674435.15,30430,8.0,72794.0,-14.01,-19.85,-20.09,0,*6E
1518674436.4,30431,8.0,72796.3,-14.01,-19.71,-20.09,0,*64
1518674437.66,30432,8.0,72796.0,-14.03,-19.85,-20.19,0,*6F
1518674438.94,30433,8.0,72794.5,-14.01,-19.81,-20.15,0,*64
1518674440.19,30434,8.0,72792.0,-14.01,-19.95,-20.09,0,*6B
1518674441.47,30435,8.06,72796.5,-14.01,-19.81,-20.15,0,*62
1518674442.73,30436,8.0,72792.8,-14.01,-19.81,-19.99,0,*6F
1518674443.97,30437,8.0,72794.8,-14.01,-19.71,-20.09,0,*62
1518674445.22,30438,8.0,72796.0,-14.01,-19.71,-19.99,0,*6E
1518674446.47,30439,8.0,72796.0,-14.01,-19.71,-19.99,0,*6F
1518674447.73,30440,8.0,72796.3,-14.01,-19.85,-19.99,0,*6A
1518674449.0,30441,8.06,72798.5,-14.01,-19.85,-20.09,0,*68
1518674450.26,30442,8.0,72798.8,-14.01,-19.99,-20.15,0,*6B
1518674451.49,30443,8.0,72794.0,-13.99,-19.99,-20.25,0,*6F
1518674452.74,30444,8.06,72800.0,-14.01,-19.99,-20.25,0,*6E
1518674453.98,30445,8.0,72796.5,-13.99,-19.85,-20.09,0,*6A
1518674455.22,30446,8.0,72794.5,-13.99,-19.81,-20.09,0,*6D
1518674456.48,30447,8.0,72798.3,-13.99,-19.85,-20.15,0,*65
1518674457.7,30448,8.0,72792.8,-13.99,-19.99,-20.25,0,*64
1518674458.95,30449,8.0,72798.8,-13.99,-19.95,-20.15,0,*6A
1518674460.19,30450,8.06,72800.0,-13.99,-19.81,-20.25,0,*64
1518674461.44,30451,8.0,72798.8,-14.01,-19.95,-20.25,0,*66
1518674462.66,30452,8.0,72796.3,-13.99,-19.95,-20.25,0,*63
1518674463.91,30453,8.0,72798.8,-14.01,-19.95,-20.25,0,*64
1518674465.19,30454,8.0,72796.8,-14.01,-19.81,-20.15,0,*65
1518674466.45,30455,8.0,72796.8,-14.01,-19.81,-19.99,0,*6A
1518674467.72,30456,8.0,72796.5,-14.01,-19.85,-20.09,0,*6E
1518674468.96,30457,8.0,72796.3,-13.99,-19.85,-20.25,0,*67
1518674470.18,30458,8.0,72796.3,-13.99,-20.09,-20.39,0,*6B
1518674471.45,30459,8.0,72798.8,-14.01,-20.15,-20.29,0,*60
1518674472.69,30460,8.0,72798.0,-14.01,-20.09,-20.39,0,*66
1518674473.93,30461,8.0,72796.0,-14.01,-20.09,-20.39,0,*67
1518674475.2,30462,8.0,72796.5,-14.01,-20.15,-20.29,0,*68
1518674476.46,30463,8.0,72794.5,-14.03,-20.15,-20.35,0,*66
1518674477.69,30464,8.0,72796.0,-14.01,-20.09,-20.29,0,*63
1518674478.98,30465,8.0,72798.0,-14.01,-19.85,-20.15,0,*63
1518674480.24,30466,8.0,72794.3,-14.01,-19.81,-19.99,0,*6A
1518674481.45,30467,8.0,72798.0,-14.03,-19.75,-20.05,0,*6D
1518674482.71,30468,8.0,72796.0,-14.03,-19.85,-20.15,0,*6C
1518674483.96,30469,8.0,72794.5,-14.01,-19.81,-19.99,0,*65
1518674485.22,30470,8.0,72796.3,-14.03,-19.85,-20.15,0,*65
1518674486.48,30471,8.0,72794.0,-14.01,-19.81,-19.99,0,*6C
1518674487.75,30472,8.0,72796.3,-14.01,-19.65,-19.99,0,*65
1518674488.97,30473,8.0,72796.8,-13.99,-19.71,-19.95,0,*6B
1518674490.25,30474,8.0,72796.3,-13.95,-19.57,-19.75,0,*6A
1518674491.52,30475,8.0,72798.0,-13.99,-19.65,-19.81,0,*6D
1518674492.76,30476,8.0,72792.8,-13.99,-19.61,-19.71,0,*65
1518674494.03,30477,8.0,72794.5,-13.99,-19.65,-19.81,0,*6F
1518674495.33,30478,8.0,72794.8,-13.95,-19.65,-19.81,0,*6C
1518674496.6,30479,8.0,72794.0,-13.95,-19.65,-19.95,0,*68
1518674497.83,30480,8.0,72796.8,-13.99,-19.81,-19.99,0,*64
1518674499.08,30481,8.0,72794.0,-13.99,-19.85,-20.09,0,*62
1518674500.32,30482,8.0,72794.5,-13.99,-19.85,-20.09,0,*61
1518674501.57,30483,8.0,72796.5,-13.95,-19.95,-20.25,0,*63
1518674502.83,30484,8.0,72794.8,-13.99,-19.85,-20.15,0,*6A
1518674504.07,30485,8.0,72798.0,-13.99,-19.85,-20.09,0,*66
1518674505.32,30486,8.0,72796.3,-13.95,-19.75,-20.05,0,*6A
1518674506.59,30487,8.0,72796.3,-13.95,-19.65,-19.91,0,*6D
1518674507.83,30488,8.0,72794.3,-13.99,-19.71,-19.85,0,*6E
1518674509.05,30489,8.0,72796.3,-13.93,-19.51,-19.75,0,*68
1518674510.35,30490,8.0,72798.5,-13.95,-19.61,-19.81,0,*6E
1518674511.62,30491,8.0,72794.5,-13.95,-19.61,-19.91,0,*6E
1518674512.87,30492,8.0,72796.0,-13.93,-19.57,-19.75,0,*64
1518674514.1,30493,8.06,72800.3,-13.99,-19.71,-19.95,0,*65
1518674515.32,30494,8.0,72796.8,-13.93,-19.71,-19.99,0,*64
1518674516.58,30495,8.0,72796.5,-13.95,-19.81,-20.05,0,*63
1518674517.84,30496,8.0,72796.5,-13.95,-19.81,-20.05,0,*60
1518674519.1,30497,8.0,72794.3,-13.95,-19.81,-20.05,0,*61
1518674520.34,30498,8.0,72794.5,-13.99,-19.85,-20.09,0,*6A
1518674521.58,30499,8.0,72798.3,-13.95,-19.91,-20.05,0,*6E
1518674522.83,30500,8.0,72792.0,-13.99,-19.95,-20.15,0,*66
1518674524.07,30501,8.0,72794.8,-13.99,-19.85,-20.09,0,*6B
1518674525.31,30502,8.0,72794.5,-13.95,-19.75,-20.05,0,*67
1518674526.53,30503,8.0,72798.0,-13.93,-19.75,-19.95,0,*63
1518674527.79,30504,8.0,72792.3,-13.95,-19.81,-20.05,0,*6A
1518674529.07,30505,8.0,72792.8,-13.95,-19.61,-19.95,0,*66
1518674530.36,30506,8.0,72798.5,-13.95,-19.65,-19.81,0,*64
1518674531.63,30507,8.0,72796.8,-13.95,-19.61,-19.91,0,*60
1518674532.88,30508,8.0,72796.0,-13.93,-19.57,-19.91,0,*6C
1518674534.15,30509,8.0,72796.8,-13.95,-19.61,-19.91,0,*6E
1518674535.43,30510,8.0,72794.3,-13.93,-19.61,-19.85,0,*65
1518674536.7,30511,8.0,72792.5,-13.93,-19.61,-19.61,0,*6E
1518674537.97,30512,8.0,72796.5,-13.93,-19.57,-19.85,0,*62
1518674539.19,30513,8.0,72800.0,-13.93,-19.75,-19.95,0,*62
1518674540.43,30514,8.0,72798.8,-13.93,-19.85,-20.05,0,*69
1518674541.67,30515,8.0,72794.5,-13.93,-19.85,-19.99,0,*67
1518674542.91,30516,8.0,72794.3,-13.93,-19.85,-20.05,0,*6B
1518674544.13,30517,8.0,72800.3,-13.93,-19.71,-19.91,0,*66
1518674545.38,30518,8.0,72794.5,-13.93,-19.57,-19.75,0,*67
1518674546.65,30519,8.0,72796.0,-13.95,-19.65,-19.91,0,*6B
1518674547.89,30520,8.0,72798.3,-13.95,-19.91,-20.05,0,*6D
1518674549.13,30521,8.0,72798.3,-13.95,-19.75,-20.05,0,*66
1518674550.35,30522,8.0,72798.3,-13.93,-19.75,-19.99,0,*6C
1518674551.57,30523,8.0,72798.3,-13.93,-19.71,-19.99,0,*69
1518674552.84,30524,8.0,72792.5,-13.91,-19.71,-19.85,0,*61
1518674554.09,30525,8.0,72798.3,-13.91,-19.51,-19.75,0,*6D
1518674555.33,30526,8.0,72798.3,-13.93,-19.61,-19.75,0,*6F
1518674556.55,30527,8.0,72794.5,-13.93,-19.71,-19.75,0,*6F
1518674557.82,30528,8.0,72798.5,-13.93,-19.61,-19.85,0,*6E
1518674559.07,30529,8.0,72796.8,-13.93,-19.57,-19.75,0,*65
1518674560.32,30530,8.0,72796.5,-13.93,-19.57,-19.75,0,*6D
1518674561.57,30531,8.0,72794.5,-13.91,-19.51,-19.75,0,*68
1518674562.86,30532,8.0,72796.3,-13.91,-19.57,-19.85,0,*62
1518674564.16,30533,8.0,72798.3,-13.91,-19.57,-19.85,0,*63
1518674565.46,30534,8.0,72794.3,-13.91,-19.57,-19.85,0,*64
1518674566.73,30535,8.0,72796.0,-13.91,-19.61,-19.75,0,*6F
1518674568.01,30536,8.0,72794.8,-13.91,-19.61,-19.75,0,*6C
1518674569.25,30537,8.0,72792.3,-13.93,-19.41,-19.75,0,*6D
1518674570.52,30538,8.0,72800.0,-13.91,-19.51,-19.85,0,*6E
1518674571.77,30539,8.0,72800.0,-13.91,-19.71,-19.91,0,*68
1518674572.98,30540,8.0,72796.0,-13.93,-19.75,-20.05,0,*67
1518674574.22,30541,8.0,72794.8,-13.91,-19.75,-19.99,0,*6B
1518674575.47,30542,8.0,72798.0,-13.91,-19.75,-19.99,0,*68
1518674576.71,30543,8.0,72796.5,-13.91,-19.71,-19.91,0,*65
1518674577.96,30544,8.0,72798.0,-13.91,-19.71,-19.99,0,*6A
1518674579.18,30545,8.0,72798.3,-13.93,-19.71,-19.99,0,*69
1518674580.42,30546,8.0,72798.3,-13.91,-19.75,-19.91,0,*64
1518674581.67,30547,8.0,72794.3,-13.91,-19.71,-19.91,0,*61
1518674582.94,30548,8.0,72798.8,-13.91,-19.75,-19.85,0,*6F
1518674584.21,30549,8.0,72792.8,-13.91,-19.57,-19.75,0,*61
1518674585.51,30550,8.0,72792.3,-13.91,-19.61,-19.85,0,*63
1518674586.76,30551,8.0,72798.8,-13.89,-19.71,-19.85,0,*6A
1518674588.03,30552,8.0,72796.5,-13.91,-19.51,-19.61,0,*68
1518674589.3,30553,8.0,72798.3,-13.91,-19.41,-19.71,0,*69
1518674590.57,30554,8.0,72798.5,-13.91,-19.51,-19.61,0,*6E
1518674591.84,30555,8.0,72796.3,-13.91,-19.57,-19.71,0,*68
1518674593.12,30556,8.0,72794.8,-13.91,-19.57,-19.75,0,*6F
1518674594.39,30557,8.0,72794.3,-13.91,-19.61,-19.91,0,*61
1518674595.64,30558,8.0,72798.3,-13.91,-19.75,-19.99,0,*63
1518674596.88,30559,8.0,72796.8,-13.91,-19.71,-19.91,0,*6E
1518674598.15,30560,8.0,72796.8,-13.91,-19.71,-19.85,0,*61
1518674599.4,30561,8.0,72796.8,-13.87,-19.51,-19.71,0,*6E
1518674600.67,30562,8.0,72798.3,-13.89,-19.41,-19.61,0,*63
1518674601.9,30563,8.0,72796.3,-13.89,-19.51,-19.71,0,*62
1518674603.14,30564,8.0,72798.8,-13.87,-19.47,-19.71,0,*6C
1518674604.39,30565,8.0,72796.5,-13.89,-19.57,-19.75,0,*66
1518674605.64,30566,8.0,72794.8,-13.89,-19.57,-19.75,0,*65
1518674606.92,30567,8.0,72798.3,-13.89,-19.57,-19.85,0,*6B
1518674608.2,30568,8.0,72798.0,-13.89,-19.61,-19.85,0,*61
1518674609.47,30569,8.0,72798.0,-13.87,-19.51,-19.85,0,*6D
1518674610.71,30570,8.0,72798.3,-13.87,-19.51,-19.71,0,*6E
1518674611.95,30571,8.0,72796.8,-13.87,-19.47,-19.71,0,*68
1518674613.22,30572,8.0,72796.8,-13.87,-19.47,-19.65,0,*6E
1518674614.49,30573,8.0,72794.8,-13.87,-19.47,-19.65,0,*6F
1518674615.74,30574,8.0,72802.8,-13.89,-19.57,-19.71,0,*62
1518674617.02,30575,8.0,72798.3,-13.87,-19.57,-19.71,0,*6D
1518674618.29,30576,8.0,72798.3,-13.87,-19.51,-19.81,0,*67
1518674619.58,30577,8.0,72796.3,-13.87,-19.57,-19.81,0,*60
1518674620.83,30578,8.0,72798.5,-13.87,-19.71,-19.95,0,*6E
1518674622.12,30579,8.0,72798.5,-13.87,-19.65,-19.81,0,*6F
1518674623.39,30580,8.0,72800.0,-13.87,-19.71,-19.85,0,*68
1518674624.64,30581,8.0,72800.3,-13.87,-19.71,-19.95,0,*68
1518674625.92,30582,8.0,72796.3,-13.87,-19.57,-19.95,0,*6F
1518674627.22,30583,8.0,72800.8,-13.87,-19.57,-19.81,0,*6B
1518674628.51,30584,8.0,72800.0,-13.87,-19.57,-19.81,0,*6C
1518674629.81,30585,8.0,72800.0,-13.87,-19.57,-19.81,0,*6D
1518674631.11,30586,8.0,72802.3,-13.87,-19.57,-19.85,0,*6A
1518674632.38,30587,8.0,72798.3,-13.87,-19.51,-19.81,0,*69
1518674633.65,30588,8.0,72798.0,-13.89,-19.61,-19.85,0,*6F
1518674634.95,30589,8.0,72798.0,-13.87,-19.57,-19.81,0,*61
1518674636.24,30590,8.0,72802.5,-13.87,-19.57,-19.81,0,*69
1518674637.54,30591,8.0,72798.8,-13.87,-19.57,-19.85,0,*6C
1518674638.81,30592,8.0,72800.3,-13.87,-19.71,-19.85,0,*6B
1518674640.04,30593,8.0,72798.0,-13.85,-19.71,-19.95,0,*69
1518674641.29,30594,8.0,72800.3,-13.85,-19.65,-19.95,0,*6B
1518674642.55,30595,8.0,72798.3,-13.87,-19.81,-20.09,0,*6D
1518674643.81,30596,8.0,72798.0,-13.87,-19.85,-19.99,0,*69
1518674645.06,30597,8.0,72798.3,-13.89,-19.85,-20.05,0,*69
1518674646.28,30598,8.0,72802.5,-13.89,-19.75,-19.99,0,*66
1518674647.55,30599,8.0,72802.8,-13.87,-19.71,-19.85,0,*60
1518674648.85,30600,8.0,72802.5,-13.87,-19.57,-19.85,0,*67
1518674650.14,30601,8.0,72796.3,-13.87,-19.65,-19.81,0,*63
1518674651.43,30602,8.0,72802.8,-13.87,-19.65,-19.85,0,*64
1518674652.68,30603,8.0,72800.0,-13.85,-19.65,-19.95,0,*66
1518674653.98,30604,8.0,72800.0,-13.87,-19.57,-19.85,0,*63
1518674655.22,30605,8.0,72800.5,-13.87,-19.51,-19.71,0,*6F
1518674656.52,30606,8.0,72798.8,-13.87,-19.65,-19.81,0,*64
1518674657.81,30607,8.0,72800.5,-13.87,-19.65,-19.81,0,*65
1518674659.07,30608,8.0,72800.0,-13.87,-19.81,-19.99,0,*69
1518674660.33,30609,8.0,72800.3,-13.87,-19.81,-19.99,0,*68
1518674661.6,30610,8.0,72802.5,-13.87,-19.65,-19.95,0,*66
1518674662.85,30611,8.0,72800.0,-13.87,-19.71,-19.95,0,*62
1518674664.1,30612,8.0,72800.5,-13.87,-19.71,-19.95,0,*61
1518674665.32,30613,8.0,72800.3,-13.85,-19.71,-19.99,0,*6E
1518674666.55,30614,8.06,72804.8,-13.85,-19.71,-19.95,0,*65
1518674667.8,30615,8.0,72802.8,-13.87,-19.71,-19.95,0,*66
1518674669.09,30616,8.0,72802.5,-13.87,-19.65,-19.81,0,*65
1518674670.36,30617,8.0,72800.0,-13.87,-19.65,-19.95,0,*61
1518674671.64,30618,8.0,72798.8,-13.87,-19.65,-19.95,0,*6E
1518674672.89,30619,8.0,72802.5,-13.87,-19.71,-19.95,0,*6A
1518674674.16,30620,8.0,72798.5,-13.87,-19.85,-20.09,0,*64
1518674675.4,30621,8.0,72802.5,-13.87,-19.99,-20.25,0,*66
1518674676.67,30622,8.0,72800.0,-13.89,-20.15,-20.35,0,*64
1518674677.94,30623,8.0,72800.0,-13.87,-20.15,-20.39,0,*67
1518674679.21,30624,8.0,72804.0,-13.89,-20.15,-20.35,0,*62
1518674680.45,30625,8.0,72796.5,-13.89,-20.05,-20.19,0,*6C
1518674681.72,30626,8.0,72800.5,-13.87,-19.95,-20.15,0,*6E
1518674682.97,30627,8.0,72804.0,-13.87,-19.71,-19.95,0,*67
1518674684.23,30628,8.0,72800.0,-13.89,-19.85,-20.15,0,*6F
1518674685.51,30629,8.0,72804.0,-13.87,-19.81,-20.15,0,*64
1518674686.78,30630,8.0,72796.3,-13.87,-19.85,-20.09,0,*65
1518674688.03,30631,8.0,72798.8,-13.89,-19.99,-20.19,0,*66
1518674689.3,30632,8.0,72802.5,-13.87,-19.95,-20.15,0,*6B
1518674690.56,30633,8.0,72800.3,-13.87,-19.81,-19.99,0,*61
1518674691.83,30634,8.0,72798.8,-13.87,-19.71,-19.85,0,*64
1518674693.05,30635,8.0,72802.5,-13.89,-19.75,-19.99,0,*62
1518674694.31,30636,8.0,72802.3,-13.87,-19.81,-20.09,0,*67
1518674695.57,30637,8.0,72800.0,-13.87,-19.95,-20.15,0,*6E
1518674696.83,30638,8.0,72806.0,-13.89,-19.99,-20.19,0,*6F
1518674698.07,30639,8.0,72804.8,-13.87,-20.09,-20.25,0,*6C
1518674699.33,30640,8.0,72802.8,-13.87,-20.15,-20.25,0,*6F
1518674700.58,30641,8.0,72802.0,-13.89,-20.15,-20.29,0,*6C
1518674701.82,30642,8.0,72800.3,-13.89,-19.99,-20.15,0,*6E
1518674703.08,30643,8.0,72804.0,-13.87,-19.81,-19.99,0,*66
1518674704.31,30644,8.0,72802.5,-13.89,-19.91,-20.05,0,*61
1518674705.55,30645,8.0,72804.3,-13.89,-19.99,-20.15,0,*69
1518674706.77,30646,8.0,72802.8,-13.89,-20.05,-20.29,0,*6A
1518674707.99,30647,8.0,72800.8,-13.89,-20.05,-20.29,0,*6B
1518674709.23,30648,8.0,72798.3,-13.89,-20.15,-20.29,0,*65
1518674710.48,30649,8.0,72802.5,-13.89,-19.99,-20.19,0,*69
1518674711.73,30650,8.0,72800.0,-13.89,-19.99,-20.19,0,*61
1518674712.98,30651,8.0,72806.5,-13.89,-19.99,-20.19,0,*60
1518674714.23,30652,8.0,72804.3,-13.89,-19.99,-20.15,0,*6F
1518674715.48,30653,8.0,72802.5,-13.87,-19.99,-20.09,0,*6D
1518674716.72,30654,8.0,72802.0,-13.89,-20.05,-20.19,0,*6A
1518674717.97,30655,8.0,72802.8,-13.89,-19.99,-20.19,0,*64
1518674719.24,30656,8.0,72802.8,-13.87,-19.95,-20.15,0,*69
1518674720.46,30657,8.0,72802.3,-13.89,-19.99,-20.29,0,*65
1518674721.73,30658,8.0,72800.0,-13.91,-19.99,-20.15,0,*6C
1518674722.98,30659,8.0,72804.3,-13.89,-19.99,-20.15,0,*64
1518674724.22,30660,8.0,72800.5,-13.89,-19.99,-20.15,0,*6E
1518674725.44,30661,8.0,72800.0,-13.89,-19.91,-20.05,0,*66
1518674726.69,30662,8.0,72802.0,-13.89,-19.85,-19.99,0,*6F
1518674727.94,30663,8.0,72802.0,-13.91,-19.71,-19.91,0,*64
1518674729.16,30664,8.0,72800.3,-13.89,-19.75,-19.99,0,*66
1518674730.4,30665,8.0,72800.3,-13.89,-19.91,-20.15,0,*63
1518674731.65,30666,8.0,72800.8,-13.89,-19.99,-20.15,0,*68
1518674732.9,30667,8.0,72798.8,-13.89,-19.91,-20.19,0,*6D
1518674734.14,30668,8.0,72802.3,-13.89,-19.85,-20.05,0,*6A
1518674735.39,30669,8.0,72802.8,-13.89,-19.85,-20.05,0,*6B
1518674736.63,30670,8.0,72800.5,-13.89,-19.85,-19.99,0,*6C
1518674737.9,30671,8.0,72798.8,-13.87,-19.71,-19.85,0,*65
1518674739.13,30672,8.0,72802.3,-13.89,-19.71,-19.91,0,*6D
1518674740.4,30673,8.0,72798.5,-13.87,-19.71,-19.85,0,*67
1518674741.65,30674,8.0,72800.8,-13.89,-19.85,-20.05,0,*67
1518674742.91,30675,8.0,72802.5,-13.89,-19.85,-20.15,0,*67
1518674744.16,30676,8.0,72802.0,-13.89,-19.99,-20.15,0,*69
1518674745.4,30677,8.0,72800.8,-13.89,-19.85,-20.05,0,*64
1518674746.63,30678,8.0,72800.0,-13.89,-19.91,-20.05,0,*6E
1518674747.87,30679,8.0,72800.0,-13.89,-19.91,-20.15,0,*6E
1518674749.13,30680,8.0,72798.8,-13.87,-19.85,-20.09,0,*6E
1518674750.38,30681,8.0,72800.8,-13.89,-19.99,-20.15,0,*61
1518674751.63,30682,8.0,72800.5,-13.89,-19.91,-20.15,0,*6A
1518674752.86,30683,8.0,72802.5,-13.89,-19.81,-19.99,0,*64
1518674754.11,30684,8.0,72798.3,-13.89,-19.91,-20.15,0,*6C
1518674755.36,30685,8.0,72802.5,-13.89,-19.99,-20.19,0,*69
1518674756.58,30686,8.0,72804.3,-13.89,-19.91,-20.05,0,*6F
1518674757.81,30687,8.0,72804.0,-13.89,-19.91,-20.05,0,*6E
1518674759.05,30688,8.0,72806.3,-13.89,-19.85,-19.99,0,*6B
1518674760.3,30689,8.0,72800.0,-13.89,-19.85,-20.05,0,*65
1518674761.56,30690,8.0,72802.5,-13.89,-19.85,-20.15,0,*6C
1518674762.82,30691,8.0,72800.5,-13.87,-19.81,-19.99,0,*69
1518674764.07,30692,8.0,72802.8,-13.89,-19.85,-19.99,0,*60
1518674765.29,30693,8.0,72800.3,-13.89,-19.91,-20.05,0,*6B
1518674766.53,30694,8.0,72804.3,-13.89,-19.99,-20.15,0,*65
1518674767.79,30695,8.0,72802.3,-13.89,-19.99,-20.19,0,*68
1518674769.0,30696,8.0,72800.8,-13.89,-20.05,-20.29,0,*67
1518674770.25,30697,8.0,72802.8,-13.89,-20.15,-20.29,0,*67
1518674771.47,30698,8.0,72802.3,-13.89,-19.95,-20.09,0,*68
1518674772.72,30699,8.0,72800.5,-13.89,-19.91,-20.15,0,*60
1518674773.95,30700,8.0,72802.5,-13.89,-20.05,-20.15,0,*66
1518674775.22,30701,8.0,72800.0,-13.89,-19.85,-20.15,0,*65
1518674776.46,30702,8.0,72806.3,-13.89,-20.05,-20.15,0,*64
1518674777.68,30703,8.0,72800.0,-13.89,-19.99,-20.29,0,*65
1518674778.93,30704,8.0,72802.8,-13.89,-20.05,-20.19,0,*6E
1518674780.15,30705,8.0,72800.3,-13.89,-19.99,-20.29,0,*63
1518674781.38,30706,8.0,72804.0,-13.89,-19.99,-20.29,0,*60
1518674782.6,30707,8.0,72802.0,-13.89,-20.05,-20.29,0,*6E
1518674783.83,30708,8.0,72798.5,-13.89,-20.05,-20.15,0,*6E
1518674785.08,30709,8.0,72800.5,-13.89,-19.85,-19.99,0,*63
1518674786.32,30710,8.0,72800.5,-13.89,-19.91,-20.15,0,*60
1518674787.54,30711,8.0,72800.5,-13.89,-19.91,-20.05,0,*60
1518674788.79,30712,8.0,72802.3,-13.89,-19.85,-20.05,0,*66
1518674790.03,30713,8.0,72800.3,-13.89,-19.85,-19.99,0,*68
1518674791.26,30714,8.0,72802.3,-13.89,-19.75,-19.99,0,*60
1518674792.55,30715,8.0,72802.0,-13.87,-19.65,-19.81,0,*67
1518674793.85,30716,8.0,72802.3,-13.87,-19.57,-19.85,0,*61
1518674795.09,30717,8.0,72800.0,-13.89,-19.75,-19.85,0,*6E
1518674796.31,30718,8.0,72800.5,-13.89,-19.75,-19.91,0,*64
1518674797.56,30719,8.0,72804.0,-13.89,-19.91,-20.15,0,*69
1518674798.8,30720,8.0,72802.5,-13.89,-19.85,-20.05,0,*67
1518674800.06,30721,8.0,72802.5,-13.87,-19.81,-20.09,0,*60
1518674801.33,30722,8.0,72804.8,-13.89,-19.85,-20.15,0,*64
1518674802.57,30723,8.0,72800.3,-13.89,-19.91,-20.15,0,*60
1518674803.79,30724,8.0,72806.3,-13.89,-19.75,-19.99,0,*63
1518674805.02,30725,8.0,72802.5,-13.89,-19.91,-20.05,0,*67
1518674806.26,30726,8.0,72804.8,-13.89,-19.91,-20.19,0,*69
1518674807.49,30727,8.0,72800.0,-13.89,-19.91,-20.05,0,*65
1518674808.73,30728,8.0,72806.5,-13.89,-19.85,-19.99,0,*60
1518674810.02,30729,8.0,72806.0,-13.87,-19.81,-19.85,0,*66
1518674811.28,30730,8.0,72806.3,-13.87,-19.85,-20.09,0,*64
1518674812.53,30731,8.0,72800.8,-13.89,-19.99,-20.19,0,*67
1518674813.78,30732,8.0,72806.5,-13.89,-20.05,-20.19,0,*6B
1518674815.04,30733,8.0,72806.5,-13.87,-19.85,-20.09,0,*67
1518674816.29,30734,8.0,72804.5,-13.87,-19.95,-19.99,0,*62
1518674817.53,30735,8.0,72806.8,-13.89,-19.91,-20.15,0,*67
1518674818.8,30736,8.0,72804.3,-13.89,-19.85,-20.15,0,*61
1518674820.02,30737,8.0,72804.5,-13.89,-19.91,-20.05,0,*64
1518674821.24,30738,8.0,72806.5,-13.89,-19.99,-20.05,0,*63
1518674822.47,30739,8.0,72802.0,-13.89,-19.75,-20.05,0,*60
1518674823.71,30740,8.0,72804.5,-13.89,-19.85,-19.99,0,*6E
1518674824.93,30741,8.0,72804.3,-13.89,-19.75,-19.91,0,*68
1518674826.16,30742,8.0,72806.0,-13.89,-19.75,-20.05,0,*6C
1518674827.42,30743,8.0,72806.3,-13.87,-19.81,-20.09,0,*64
1518674828.68,30744,8.0,72808.0,-13.87,-19.81,-20.09,0,*63
1518674829.92,30745,8.0,72802.0,-13.89,-19.85,-20.05,0,*64
1518674831.17,30746,8.0,72804.3,-13.89,-19.85,-20.05,0,*67
1518674832.41,30747,8.0,72804.0,-13.89,-19.85,-20.05,0,*66
1518674833.66,30748,8.0,72802.8,-13.89,-19.85,-20.05,0,*69
1518674834.93,30749,8.0,72800.0,-13.87,-19.95,-20.15,0,*66
1518674836.14,30750,8.0,72804.0,-13.89,-20.05,-20.29,0,*6C
1518674837.39,30751,8.0,72806.8,-13.89,-20.15,-20.29,0,*6C
1518674838.63,30752,8.0,72804.5,-13.89,-20.15,-20.29,0,*6F
1518674839.87,30753,8.0,72806.0,-13.87,-20.09,-20.25,0,*61
1518674841.12,30754,8.0,72800.0,-13.89,-19.99,-20.19,0,*64
1518674842.39,30755,8.0,72802.8,-13.87,-19.85,-19.99,0,*64
1518674843.64,30756,8.0,72806.5,-13.89,-19.91,-20.19,0,*6E
1518674844.88,30757,8.0,72804.5,-13.89,-20.05,-20.19,0,*68
1518674846.13,30758,8.0,72804.3,-13.89,-19.85,-20.05,0,*68
1518674847.37,30759,8.0,72806.5,-13.89,-19.75,-20.15,0,*67
1518674848.63,30760,8.0,72804.3,-13.87,-19.81,-19.95,0,*6A
1518674849.88,30761,8.0,72804.3,-13.89,-19.91,-20.19,0,*6A
1518674851.12,30762,8.0,72802.3,-13.87,-20.09,-20.29,0,*6F
1518674852.34,30763,8.0,72802.5,-13.89,-20.05,-20.25,0,*60
1518674853.58,30764,8.0,72806.0,-13.89,-20.05,-20.19,0,*68
1518674854.81,30765,8.0,72800.3,-13.89,-19.99,-20.29,0,*65
1518674856.02,30766,8.0,72800.5,-13.89,-20.05,-20.29,0,*69
1518674857.25,30767,8.0,72802.3,-13.89,-19.99,-20.29,0,*67
1518674858.5,30768,8.0,72802.5,-13.89,-19.85,-20.05,0,*6B
1518674859.75,30769,8.0,72802.8,-13.87,-19.71,-19.95,0,*6C
1518674860.97,30770,8.0,72802.3,-13.89,-19.75,-19.99,0,*62
1518674862.19,30771,8.0,72800.8,-13.89,-19.91,-20.05,0,*66
1518674863.43,30772,8.0,72804.5,-13.89,-20.05,-20.19,0,*6F
1518674864.68,30773,8.0,72804.3,-13.89,-20.05,-20.19,0,*6E
1518674865.89,30774,8.0,72804.5,-13.89,-20.05,-20.29,0,*6A
1518674867.11,30775,8.0,72802.5,-13.89,-20.05,-20.29,0,*6B
1518674868.33,30776,8.0,72800.8,-13.89,-20.05,-20.29,0,*68
1518674869.57,30777,8.0,72806.0,-13.89,-20.15,-20.29,0,*68
1518674870.81,30778,8.0,72804.0,-13.89,-20.05,-20.19,0,*65
1518674872.05,30779,8.0,72804.8,-13.89,-20.05,-20.15,0,*68
1518674873.28,30780,8.0,72804.8,-13.89,-19.91,-20.05,0,*68
1518674874.5,30781,8.0,72804.8,-13.89,-19.91,-20.05,0,*69
1518674875.74,30782,8.0,72806.0,-13.89,-19.85,-20.05,0,*6F
1518674877.0,30783,8.0,72804.3,-13.89,-19.99,-20.19,0,*6E
1518674878.25,30784,8.0,72804.8,-13.87,-19.99,-20.25,0,*68
1518674879.51,30785,8.0,72806.0,-13.91,-20.19,-20.29,0,*60
1518674880.77,30786,8.0,72804.5,-13.91,-20.19,-20.29,0,*63
1518674882.06,30787,8.0,72804.8,-13.91,-20.15,-20.35,0,*63
1518674883.33,30788,8.0,72806.3,-13.91,-20.15,-20.29,0,*61
1518674884.56,30789,8.0,72806.0,-13.91,-20.05,-20.29,0,*61
1518674885.81,30790,8.0,72810.8,-13.91,-19.99,-20.29,0,*66
1518674887.08,30791,8.0,72806.0,-13.91,-19.99,-20.19,0,*64
1518674888.33,30792,8.0,72806.3,-13.91,-19.99,-20.29,0,*64
1518674889.57,30793,8.0,72806.3,-13.93,-20.19,-20.29,0,*65
1518674890.84,30794,8.0,72806.3,-13.91,-20.19,-20.43,0,*6C
1518674892.12,30795,8.0,72806.8,-13.91,-20.15,-20.35,0,*60
1518674893.39,30796,8.0,72804.5,-13.91,-20.05,-20.35,0,*62
1518674894.61,30797,8.0,72806.5,-13.93,-19.99,-20.29,0,*63
1518674895.85,30798,8.0,72804.5,-13.91,-19.91,-20.05,0,*68
1518674897.09,30799,8.0,72808.3,-13.93,-19.91,-20.15,0,*6A
1518674898.33,30800,8.0,72804.0,-13.93,-19.99,-20.19,0,*61
1518674899.6,30801,8.0,72808.5,-13.91,-20.05,-20.19,0,*6D
1518674900.81,30802,8.0,72806.0,-13.93,-20.05,-20.29,0,*6F
1518674902.04,30803,8.0,72806.5,-13.93,-20.05,-20.19,0,*6D
1518674903.32,30804,8.0,72804.5,-13.91,-19.99,-20.19,0,*67
1518674904.58,30805,8.0,72804.5,-13.93,-19.85,-20.15,0,*65
1518674905.82,30806,8.0,72804.8,-13.93,-19.99,-20.15,0,*6B
1518674907.06,30807,8.0,72808.8,-13.91,-19.91,-20.29,0,*6F
1518674908.3,30808,8.0,72804.5,-13.91,-20.05,-20.29,0,*67